Time,TemperatureF,DewpointF,PressureIn,WindDirection,WindDirectionDegrees,WindSpeedMPH,WindSpeedGustMPH,Humidity,HourlyPrecipIn,Conditions,Clouds,dailyrainin,SolarRadiationWatts/m^2,SoftwareType,DateUTC
2013-09-14 00:04:00,55.0,48.0,30.28,SE,140,2.0,7.0,76,-99.99,,,0.00,0.000000,,2013-09-14 04:04:00,
2013-09-14 00:14:00,55.0,48.0,30.28,SE,140,2.0,7.0,76,-99.99,,,0.00,0.000000,,2013-09-14 04:14:00,
2013-09-14 00:43:00,56.0,46.0,30.28,North,2,2.0,8.0,69,0.00,,,0.00,0.000000,,2013-09-14 04:43:00,
2013-09-14 00:54:00,56.0,46.0,30.28,North,2,2.0,8.0,69,0.00,,,0.00,0.000000,,2013-09-14 04:54:00,
2013-09-14 01:03:00,56.0,46.0,30.28,North,2,2.0,8.0,69,0.00,,,0.00,0.000000,,2013-09-14 05:03:00,
2013-09-14 01:13:00,56.0,46.0,30.28,North,2,2.0,8.0,69,0.00,,,0.00,0.000000,,2013-09-14 05:13:00,
2013-09-14 01:43:00,54.0,44.0,30.28,East,92,2.0,11.0,70,0.00,,,0.00,0.000000,,2013-09-14 05:43:00,
2013-09-14 01:53:00,54.0,44.0,30.28,East,92,2.0,11.0,70,0.00,,,0.00,0.000000,,2013-09-14 05:53:00,
2013-09-14 02:02:00,54.0,44.0,30.28,East,92,2.0,11.0,70,0.00,,,0.00,0.000000,,2013-09-14 06:02:00,
2013-09-14 02:12:00,54.0,44.0,30.28,East,92,2.0,11.0,70,0.00,,,0.00,0.000000,,2013-09-14 06:12:00,
2013-09-14 02:42:00,52.0,46.0,30.30,West,280,1.0,13.0,81,0.00,,,0.00,0.000000,,2013-09-14 06:42:00,
2013-09-14 02:52:00,52.0,46.0,30.30,West,280,1.0,13.0,81,0.00,,,0.00,0.000000,,2013-09-14 06:52:00,
2013-09-14 03:02:00,52.0,46.0,30.30,West,280,1.0,13.0,81,0.00,,,0.00,0.000000,,2013-09-14 07:02:00,
2013-09-14 03:12:00,52.0,46.0,30.30,West,280,1.0,13.0,81,0.00,,,0.00,0.000000,,2013-09-14 07:12:00,
2013-09-14 03:42:00,49.0,45.0,30.30,ENE,77,1.0,5.0,87,0.00,,,0.00,0.000000,,2013-09-14 07:42:00,
2013-09-14 03:52:00,49.0,45.0,30.30,ENE,77,1.0,5.0,87,0.00,,,0.00,0.000000,,2013-09-14 07:52:00,
2013-09-14 04:02:00,49.0,45.0,30.30,ENE,77,1.0,5.0,87,0.00,,,0.00,0.000000,,2013-09-14 08:02:00,
2013-09-14 04:12:00,49.0,45.0,30.30,ENE,77,1.0,5.0,87,0.00,,,0.00,0.000000,,2013-09-14 08:12:00,
2013-09-14 04:42:00,54.0,46.0,30.30,South,173,3.0,13.0,74,0.00,,,0.00,0.000000,,2013-09-14 08:42:00,
2013-09-14 04:52:00,54.0,46.0,30.30,South,173,3.0,13.0,74,0.00,,,0.00,0.000000,,2013-09-14 08:52:00,
2013-09-14 05:02:00,54.0,46.0,30.30,South,173,3.0,13.0,74,0.00,,,0.00,0.000000,,2013-09-14 09:02:00,
2013-09-14 05:12:00,54.0,46.0,30.30,South,173,3.0,13.0,74,0.00,,,0.00,0.000000,,2013-09-14 09:12:00,
2013-09-14 05:43:00,52.0,47.0,30.31,SSE,158,2.0,7.0,82,0.00,,,0.00,0.000000,,2013-09-14 09:43:00,
2013-09-14 05:54:00,52.0,47.0,30.31,SSE,158,2.0,7.0,82,0.00,,,0.00,0.000000,,2013-09-14 09:54:00,
2013-09-14 06:03:00,52.0,47.0,30.31,SSE,158,2.0,7.0,82,0.00,,,0.00,0.000000,,2013-09-14 10:03:00,
2013-09-14 06:13:00,52.0,47.0,30.31,SSE,158,2.0,7.0,82,0.00,,,0.00,0.000000,,2013-09-14 10:13:00,
2013-09-14 06:43:00,48.0,46.0,30.34,NNW,329,1.0,7.0,92,0.00,,,0.00,0.000000,,2013-09-14 10:43:00,
2013-09-14 06:53:00,48.0,46.0,30.34,NNW,329,1.0,7.0,92,0.00,,,0.00,0.000000,,2013-09-14 10:53:00,
2013-09-14 07:02:00,48.0,46.0,30.34,NNW,329,1.0,7.0,92,0.00,,,0.00,0.000000,,2013-09-14 11:02:00,
2013-09-14 07:12:00,48.0,46.0,30.34,NNW,329,1.0,7.0,92,0.00,,,0.00,0.000000,,2013-09-14 11:12:00,
2013-09-14 07:42:00,47.0,46.0,30.36,NNW,348,1.0,2.0,96,0.00,,,0.00,0.000000,,2013-09-14 11:42:00,
2013-09-14 07:52:00,47.0,46.0,30.36,NNW,348,1.0,2.0,96,0.00,,,0.00,0.000000,,2013-09-14 11:52:00,
2013-09-14 08:02:00,47.0,46.0,30.36,NNW,348,1.0,2.0,96,0.00,,,0.00,0.000000,,2013-09-14 12:02:00,
2013-09-14 08:12:00,47.0,46.0,30.36,NNW,348,1.0,2.0,96,0.00,,,0.00,0.000000,,2013-09-14 12:12:00,
2013-09-14 08:42:00,48.0,47.0,30.38,ENE,60,1.0,4.0,97,0.00,,,0.00,13.000000,,2013-09-14 12:42:00,
2013-09-14 08:53:00,48.0,47.0,30.38,ENE,60,1.0,4.0,97,0.00,,,0.00,13.000000,,2013-09-14 12:53:00,
2013-09-14 09:01:00,48.0,47.0,30.38,ENE,60,1.0,4.0,97,0.00,,,0.00,13.000000,,2013-09-14 13:01:00,
2013-09-14 09:12:00,48.0,47.0,30.38,ENE,60,1.0,4.0,97,0.00,,,0.00,13.000000,,2013-09-14 13:12:00,
2013-09-14 10:12:00,62.0,48.0,30.39,ESE,115,3.0,8.0,61,0.00,,,0.00,216.000000,,2013-09-14 14:12:00,
2013-09-14 11:11:00,68.0,50.0,30.39,SW,232,4.0,10.0,53,0.00,,,0.00,469.000000,,2013-09-14 15:11:00,
2013-09-14 12:14:00,72.0,49.0,30.38,SE,126,2.0,7.0,44,0.00,,,0.00,669.000000,,2013-09-14 16:14:00,
2013-09-14 12:44:00,71.0,48.0,30.38,South,182,4.0,8.0,44,0.00,,,0.00,834.000000,,2013-09-14 16:44:00,
2013-09-14 12:54:00,71.0,48.0,30.38,South,182,4.0,8.0,44,0.00,,,0.00,834.000000,,2013-09-14 16:54:00,
2013-09-14 13:03:00,71.0,48.0,30.38,South,182,4.0,8.0,44,0.00,,,0.00,834.000000,,2013-09-14 17:03:00,
2013-09-14 13:11:00,71.0,48.0,30.38,South,182,4.0,8.0,44,0.00,,,0.00,834.000000,,2013-09-14 17:11:00,
2013-09-14 13:43:00,73.0,48.0,30.37,North,4,5.0,10.0,41,0.00,,,0.00,930.000000,,2013-09-14 17:43:00,
2013-09-14 13:54:00,73.0,48.0,30.37,North,4,5.0,10.0,41,0.00,,,0.00,930.000000,,2013-09-14 17:54:00,
2013-09-14 14:02:00,73.0,48.0,30.37,North,4,5.0,10.0,41,0.00,,,0.00,930.000000,,2013-09-14 18:02:00,
2013-09-14 14:12:00,73.0,48.0,30.37,North,4,5.0,10.0,41,0.00,,,0.00,930.000000,,2013-09-14 18:12:00,
2013-09-14 14:43:00,75.0,48.0,30.35,East,86,3.0,10.0,38,0.00,,,0.00,953.000000,,2013-09-14 18:43:00,
2013-09-14 14:52:00,75.0,48.0,30.35,East,86,3.0,10.0,38,0.00,,,0.00,953.000000,,2013-09-14 18:52:00,
2013-09-14 15:02:00,75.0,48.0,30.35,East,86,3.0,10.0,38,0.00,,,0.00,953.000000,,2013-09-14 19:02:00,
2013-09-14 15:11:00,75.0,48.0,30.35,East,86,3.0,10.0,38,0.00,,,0.00,953.000000,,2013-09-14 19:11:00,
2013-09-14 15:42:00,78.0,51.0,30.34,NW,305,3.0,13.0,39,0.00,,,0.00,873.000000,,2013-09-14 19:42:00,
2013-09-14 15:52:00,78.0,51.0,30.34,NW,305,3.0,13.0,39,0.00,,,0.00,873.000000,,2013-09-14 19:52:00,
2013-09-14 16:02:00,78.0,51.0,30.34,NW,305,3.0,13.0,39,0.00,,,0.00,873.000000,,2013-09-14 20:02:00,
2013-09-14 16:12:00,78.0,51.0,30.34,NW,305,3.0,13.0,39,0.00,,,0.00,873.000000,,2013-09-14 20:12:00,
2013-09-14 16:42:00,79.0,50.0,30.33,North,349,2.0,7.0,36,0.00,,,0.00,771.000000,,2013-09-14 20:42:00,
2013-09-14 16:52:00,79.0,50.0,30.33,North,349,2.0,7.0,36,0.00,,,0.00,771.000000,,2013-09-14 20:52:00,
2013-09-14 17:02:00,79.0,50.0,30.33,North,349,2.0,7.0,36,0.00,,,0.00,771.000000,,2013-09-14 21:02:00,
2013-09-14 17:12:00,79.0,50.0,30.33,North,349,2.0,7.0,36,0.00,,,0.00,771.000000,,2013-09-14 21:12:00,
2013-09-14 17:44:00,81.0,54.0,30.35,NNE,15,2.0,7.0,40,0.00,,,0.00,622.000000,,2013-09-14 21:44:00,
2013-09-14 17:54:00,81.0,54.0,30.35,NNE,15,2.0,7.0,40,0.00,,,0.00,622.000000,,2013-09-14 21:54:00,
2013-09-14 18:04:00,81.0,54.0,30.35,NNE,15,2.0,7.0,40,0.00,,,0.00,622.000000,,2013-09-14 22:04:00,
2013-09-14 18:13:00,81.0,54.0,30.35,NNE,15,2.0,7.0,40,0.00,,,0.00,622.000000,,2013-09-14 22:13:00,
2013-09-14 18:53:00,76.0,61.0,30.36,NE,39,1.0,6.0,59,0.00,,,0.00,404.000000,,2013-09-14 22:53:00,
2013-09-14 19:03:00,76.0,61.0,30.36,NE,39,1.0,6.0,59,0.00,,,0.00,404.000000,,2013-09-14 23:03:00,
2013-09-14 19:12:00,76.0,61.0,30.36,NE,39,1.0,6.0,59,0.00,,,0.00,404.000000,,2013-09-14 23:12:00,
2013-09-14 21:11:00,56.0,55.0,30.40,ENE,78,1.0,3.0,95,-99.99,,,0.00,6.000000,,2013-09-15 01:11:00,
2013-09-14 21:52:00,54.0,53.0,30.43,SSE,159,1.0,2.0,97,0.00,,,0.00,0.000000,,2013-09-15 01:52:00,
2013-09-14 22:03:00,54.0,53.0,30.43,SSE,159,1.0,2.0,97,0.00,,,0.00,0.000000,,2013-09-15 02:03:00,
2013-09-14 22:12:00,54.0,53.0,30.43,SSE,159,1.0,2.0,97,0.00,,,0.00,0.000000,,2013-09-15 02:12:00,
2013-09-14 22:52:00,51.0,50.0,30.44,SSE,147,2.0,3.0,98,0.00,,,0.00,0.000000,,2013-09-15 02:52:00,
2013-09-14 23:02:00,51.0,50.0,30.44,SSE,147,2.0,3.0,98,0.00,,,0.00,0.000000,,2013-09-15 03:02:00,
2013-09-14 23:11:00,51.0,50.0,30.44,SSE,147,2.0,3.0,98,0.00,,,0.00,0.000000,,2013-09-15 03:11:00,
2013-09-14 23:55:00,49.0,48.0,30.46,SE,136,1.0,2.0,98,0.00,,,0.00,0.000000,,2013-09-15 03:55:00,